Location: Losili
(4.4086°N, 32.7049°E)
Time: 02:28:49
(UTC+00:00)

Lacrosse 5 - Pass Details

Date: 18 September 2019
Orbit: 715 x 724 km, 57.0° (Epoch: 08 October)

Event Time Altitude Azimuth Distance (km) Brightness Sun altitude
Rises 18:13:43 0° 226° (SW) 3,116 5.6 -37.3°
Reaches altitude 10° 18:16:16 10° 235° (SW) 2,193 4.8 -37.9°
Enters shadow 18:17:24 16° 242° (WSW) 1,814 4.4 -38.2°
